| time (UTC) | temp F | wind direction | speed MPH | gust MPH | rain 1hr in | rain 24hr in | rain mn in | humidity % | barometer mb |
| 20260901150014 | 68 | 0.0 | 0.0 | 0.00 | 0.00 | 0.00 | 54 | 1020.1 | |
| 20260901144510 | 65 | 0.0 | 0.0 | 0.00 | 0.00 | 0.00 | 50 | 1019.9 | |
| 20260901143006 | 62 | 0.0 | 0.0 | 0.00 | 0.00 | 0.00 | 53 | 1019.8 | |
| 20260901141501 | 60 | 0.0 | 0.0 | 0.00 | 0.00 | 0.00 | 57 | 1019.8 | |
| 20260901140058 | 59 | 0.0 | 0.0 | 0.00 | 0.00 | 0.00 | 58 | 1019.8 | |
| 20260901134554 | 59 | 0.0 | 0.0 | 0.00 | 0.00 | 0.00 | 59 | 1019.6 | |
| 20260901133049 | 59 | 0.0 | 0.0 | 0.00 | 0.00 | 0.00 | 61 | 1019.5 | |
| 20260901131550 | 59 | 0.0 | 0.0 | 0.00 | 0.00 | 0.00 | 60 | 1019.4 | |
| 20260901130039 | 59 | 0.0 | 0.0 | 0.00 | 0.00 | 0.00 | 65 | 1019.3 | |
| 20260901124536 | 59 | 0.0 | 0.0 | 0.00 | 0.00 | 0.00 | 69 | 1019.4 | |
| 20260901123031 | 59 | 0.0 | 0.0 | 0.00 | 0.00 | 0.00 | 68 | 1019.4 | |
| 20260901121534 | 59 | 0.0 | 0.0 | 0.00 | 0.00 | 0.00 | 68 | 1019.3 | |
| 20260901120037 | 59 | 0.0 | 0.0 | 0.00 | 0.00 | 0.00 | 67 | 1019.3 | |
| 20260901114519 | 60 | 0.0 | 0.0 | 0.00 | 0.00 | 0.00 | 67 | 1019.3 | |
| 20260901113014 | 60 | 0.0 | 0.0 | 0.00 | 0.00 | 0.00 | 66 | 1019.1 | |
| 20260901111510 | 60 | 0.0 | 0.0 | 0.00 | 0.00 | 0.00 | 67 | 1019.0 | |
| 20260901110005 | 61 | 0.0 | 0.0 | 0.00 | 0.00 | 0.00 | 66 | 1018.9 | |
| 20260901104606 | 61 | 0.0 | 0.0 | 0.00 | 0.00 | 0.00 | 66 | 1019.1 | |
| 20260901103058 | 61 | 0.0 | 0.0 | 0.00 | 0.00 | 0.00 | 67 | 1019.0 | |
| 20260901101552 | 61 | 0.0 | 0.0 | 0.00 | 0.00 | 0.00 | 68 | 1019.1 | |
| 20260901100048 | 61 | 0.0 | 0.0 | 0.00 | 0.00 | 0.00 | 68 | 1019.2 | |
| 20260901094544 | 61 | 0.0 | 0.0 | 0.00 | 0.00 | 0.00 | 69 | 1019.3 | |
| 20260901093039 | 61 | 0.0 | 0.0 | 0.00 | 0.00 | 0.00 | 70 | 1019.3 | |
| 20260901091535 | 62 | 0.0 | 0.0 | 0.00 | 0.00 | 0.00 | 70 | 1019.2 | |
| 20260901090030 | 62 | 0.0 | 0.0 | 0.00 | 0.00 | 0.00 | 70 | 1019.1 | |
| 20260901084526 | 62 | 0.0 | 0.0 | 0.00 | 0.00 | 0.00 | 70 | 1019.3 | |
| 20260901083024 | 63 | 0.0 | 0.0 | 0.00 | 0.00 | 0.00 | 71 | 1019.2 | |
| 20260901081518 | 63 | 0.0 | 0.0 | 0.00 | 0.00 | 0.00 | 70 | 1019.4 | |
| 20260901080013 | 63 | 0.0 | 0.0 | 0.00 | 0.00 | 0.00 | 71 | 1019.4 | |
| 20260901074509 | 64 | 0.0 | 0.0 | 0.00 | 0.00 | 0.00 | 72 | 1019.3 | |
| 20260901073004 | 64 | 0.0 | 0.0 | 0.00 | 0.00 | 0.00 | 71 | 1019.4 | |
| 20260901071605 | 64 | 0.0 | 0.0 | 0.00 | 0.00 | 0.00 | 72 | 1019.4 | |
| 20260901070056 | 65 | 0.0 | 0.0 | 0.00 | 0.00 | 0.00 | 72 | 1019.4 | |
| 20260901064551 | 65 | 0.0 | 0.0 | 0.00 | 0.00 | 0.00 | 72 | 1019.4 | |
| 20260901063046 | 66 | 0.0 | 0.0 | 0.00 | 0.00 | 0.00 | 70 | 1019.5 | |
| 20260901061542 | 66 | 0.0 | 0.0 | 0.00 | 0.00 | 0.00 | 69 | 1019.4 | |
| 20260901060039 | 67 | 0.0 | 0.0 | 0.00 | 0.00 | 0.00 | 69 | 1019.3 | |
| 20260901054533 | 67 | 0.0 | 0.0 | 0.00 | 0.00 | 0.00 | 69 | 1019.2 | |
| 20260901053029 | 67 | 0.0 | 0.0 | 0.00 | 0.00 | 0.00 | 69 | 1019.2 | |
| 20260901051525 | 68 | 0.0 | 0.0 | 0.00 | 0.00 | 0.00 | 69 | 1019.1 | |
| 20260901050021 | 68 | 0.0 | 0.0 | 0.00 | 0.00 | 0.00 | 69 | 1019.0 | |
| 20260901044516 | 68 | 0.0 | 0.0 | 0.00 | 0.00 | 0.00 | 70 | 1019.0 | |
| 20260901043013 | 69 | 0.0 | 0.0 | 0.00 | 0.00 | 0.00 | 69 | 1019.0 | |
| 20260901041507 | 69 | 0.0 | 0.0 | 0.00 | 0.00 | 0.00 | 69 | 1019.1 | |
| 20260901040007 | 70 | 0.0 | 0.0 | 0.00 | 0.00 | 0.00 | 67 | 1019.1 | |
| 20260901034608 | 70 | 0.0 | 0.0 | 0.00 | 0.00 | 0.00 | 66 | 1019.0 | |
| 20260901033054 | 71 | 0.0 | 0.0 | 0.00 | 0.00 | 0.00 | 65 | 1018.7 | |
| 20260901031553 | 72 | 0.0 | 0.0 | 0.00 | 0.00 | 0.00 | 64 | 1018.6 | |
| 20260901030045 | 73 | 0.0 | 0.0 | 0.00 | 0.00 | 0.00 | 62 | 1018.4 | |
| 20260901024541 | 74 | 0.0 | 0.0 | 0.00 | 0.00 | 0.00 | 60 | 1018.2 | |
| 20260901023043 | 75 | 0.0 | 0.0 | 0.00 | 0.00 | 0.00 | 57 | 1018.1 | |
| 20260901021535 | 75 | 0.0 | 0.0 | 0.00 | 0.00 | 0.00 | 55 | 1017.8 | |
| 20260901020029 | 76 | 0.0 | 0.0 | 0.00 | 0.00 | 0.00 | 55 | 1017.6 | |
| 20260901014523 | 77 | 0.0 | 0.0 | 0.00 | 0.00 | 0.00 | 53 | 1017.5 | |
| 20260901013021 | 79 | 0.0 | 0.0 | 0.00 | 0.00 | 0.00 | 51 | 1017.4 | |
| 20260901011515 | 80 | 0.0 | 0.0 | 0.00 | 0.00 | 0.00 | 48 | 1017.5 | |
| 20260901010011 | 81 | 0.0 | 0.0 | 0.00 | 0.00 | 0.00 | 44 | 1017.6 | |
| 20260901004506 | 82 | 0.0 | 0.0 | 0.00 | 0.00 | 0.00 | 42 | 1017.6 | |
| 20260901003002 | 82 | 0.0 | 0.0 | 0.00 | 0.00 | 0.00 | 42 | 1017.5 | |
| 20260901001558 | 82 | 0.0 | 0.0 | 0.00 | 0.00 | 0.00 | 42 | 1017.6 | |
| 20260831233049 | 83 | 0.0 | 0.0 | 0.00 | 0.00 | 0.00 | 41 | 1017.6 | |
| 20260831231547 | 84 | 0.0 | 0.0 | 0.00 | 0.00 | 0.00 | 41 | 1017.6 | |
| 20260831230041 | 84 | 0.0 | 0.0 | 0.00 | 0.00 | 0.00 | 41 | 1017.8 | |
| 20260831224535 | 84 | 0.0 | 0.0 | 0.00 | 0.00 | 0.00 | 41 | 1017.8 | |
| 20260831223035 | 85 | 0.0 | 0.0 | 0.00 | 0.00 | 0.00 | 40 | 1017.8 | |
| 20260831221531 | 85 | 0.0 | 0.0 | 0.00 | 0.00 | 0.00 | 39 | 1017.9 | |
| 20260831220022 | 86 | 0.0 | 0.0 | 0.00 | 0.00 | 0.00 | 38 | 1018.0 | |
| 20260831214517 | 86 | 0.0 | 0.0 | 0.00 | 0.00 | 0.00 | 38 | 1017.9 | |
| 20260831213014 | 86 | 0.0 | 0.0 | 0.00 | 0.00 | 0.00 | 40 | 1018.0 | |
| 20260831211514 | 86 | 0.0 | 0.0 | 0.00 | 0.00 | 0.00 | 39 | 1018.2 | |
| 20260831210006 | 86 | 0.0 | 0.0 | 0.00 | 0.00 | 0.00 | 36 | 1018.4 | |
| 20260831204600 | 86 | 0.0 | 0.0 | 0.00 | 0.00 | 0.00 | 38 | 1018.3 | |
| 20260831203056 | 87 | 0.0 | 0.0 | 0.00 | 0.00 | 0.00 | 39 | 1018.4 | |
| 20260831201551 | 87 | 0.0 | 0.0 | 0.00 | 0.00 | 0.00 | 37 | 1018.5 | |
| 20260831200047 | 87 | 0.0 | 0.0 | 0.00 | 0.00 | 0.00 | 38 | 1018.5 | |
| 20260831194603 | 86 | 0.0 | 0.0 | 0.00 | 0.00 | 0.00 | 38 | 1018.6 | |
| 20260831193038 | 86 | 0.0 | 0.0 | 0.00 | 0.00 | 0.00 | 38 | 1018.9 | |
| 20260831191535 | 86 | 0.0 | 0.0 | 0.00 | 0.00 | 0.00 | 38 | 1018.7 | |
| 20260831190030 | 85 | 0.0 | 0.0 | 0.00 | 0.00 | 0.00 | 38 | 1018.8 | |
| 20260831184526 | 85 | 0.0 | 0.0 | 0.00 | 0.00 | 0.00 | 36 | 1018.8 | |
| 20260831183021 | 84 | 0.0 | 0.0 | 0.00 | 0.00 | 0.00 | 41 | 1018.8 | |
| 20260831181517 | 84 | 0.0 | 0.0 | 0.00 | 0.00 | 0.00 | 37 | 1018.8 | |
| 20260831180013 | 83 | 0.0 | 0.0 | 0.00 | 0.00 | 0.00 | 42 | 1018.8 | |
| 20260831174508 | 81 | 0.0 | 0.0 | 0.00 | 0.00 | 0.00 | 40 | 1018.8 | |
| 20260831173004 | 81 | 0.0 | 0.0 | 0.00 | 0.00 | 0.00 | 41 | 1018.8 | |
| 20260831171600 | 80 | 0.0 | 0.0 | 0.00 | 0.00 | 0.00 | 44 | 1018.7 | |
| 20260831170055 | 79 | 0.0 | 0.0 | 0.00 | 0.00 | 0.00 | 41 | 1018.7 | |
| 20260831164551 | 78 | 0.0 | 0.0 | 0.00 | 0.00 | 0.00 | 42 | 1018.6 | |
| 20260831163047 | 77 | 0.0 | 0.0 | 0.00 | 0.00 | 0.00 | 46 | 1018.6 | |
| 20260831161542 | 76 | 0.0 | 0.0 | 0.00 | 0.00 | 0.00 | 50 | 1018.5 | |
| 20260831160041 | 75 | 0.0 | 0.0 | 0.00 | 0.00 | 0.00 | 52 | 1018.5 | |
| 20260831154534 | 74 | 0.0 | 0.0 | 0.00 | 0.00 | 0.00 | 48 | 1018.6 | |
| 20260831153029 | 73 | 0.0 | 0.0 | 0.00 | 0.00 | 0.00 | 58 | 1018.4 | |
| 20260831151525 | 71 | 0.0 | 0.0 | 0.00 | 0.00 | 0.00 | 62 | 1018.3 |